N141DA EDDW-EDXW

Flight info

Callsign N141DA
Flight time 0h 48m
Altitude 9000
Route WSN1M/09 WSN Y850 MUBZI M105 OMWEG/N0176F080 DCT BADOS DCT OLDIP
Aircraft BE36/L-BDFGLORY/S

Departure

Time 2026-05-06 18:27
Airport Bremen Airport (EDDW)

Arrival

Time 2026-05-06 19:15
Airport Westerland Sylt Airport (EDXW)
Time Latitude Longitude Altitude Speed Heading
2026-05-06 18:11 53.05004 8.78148 16 ft 0 kts 14°
2026-05-06 18:19 53.05011 8.78154 16 ft 5 kts 45°
2026-05-06 18:19 53.04995 8.78237 16 ft 13 kts 144°
2026-05-06 18:20 53.04906 8.78303 16 ft 7 kts 140°
2026-05-06 18:20 53.04876 8.78346 16 ft 4 kts 133°
2026-05-06 18:20 53.04857 8.78402 16 ft 9 kts 107°
2026-05-06 18:20 53.04848 8.78527 16 ft 9 kts 93°
2026-05-06 18:21 53.04842 8.78645 16 ft 9 kts 124°
2026-05-06 18:21 53.04812 8.78664 16 ft 7 kts 177°
2026-05-06 18:21 53.04783 8.78666 16 ft 2 kts 178°
2026-05-06 18:21 53.04778 8.78666 16 ft 0 kts 181°
2026-05-06 18:22 53.04730 8.78668 16 ft 14 kts 173°
2026-05-06 18:22 53.04686 8.78694 16 ft 0 kts 84°
2026-05-06 18:22 53.04686 8.78696 16 ft 0 kts 85°
2026-05-06 18:26 53.04686 8.78706 16 ft 6 kts 86°
2026-05-06 18:26 53.04693 8.78979 16 ft 30 kts 88°
2026-05-06 18:26 53.04711 8.79686 30 ft 88 kts 86°
2026-05-06 18:26 53.04694 8.80728 354 ft 90 kts 90°
2026-05-06 18:27 53.04632 8.81805 658 ft 95 kts 96°
2026-05-06 18:27 53.04619 8.82968 937 ft 107 kts 83°
2026-05-06 18:27 53.04662 8.84185 1253 ft 106 kts 82°
2026-05-06 18:27 53.04747 8.85399 1537 ft 104 kts 77°
2026-05-06 18:28 53.04825 8.86532 1937 ft 93 kts 80°
2026-05-06 18:28 53.04865 8.87552 2317 ft 84 kts 81°
2026-05-06 18:28 53.04895 8.88472 2694 ft 76 kts 81°
2026-05-06 18:28 53.04918 8.89325 3016 ft 74 kts 82°
2026-05-06 18:29 53.04935 8.90171 3313 ft 72 kts 82°
2026-05-06 18:29 53.04947 8.91016 3585 ft 74 kts 83°
2026-05-06 18:29 53.04964 8.91889 3845 ft 79 kts 84°
2026-05-06 18:29 53.04977 8.92815 4105 ft 82 kts 84°
2026-05-06 18:30 53.04995 8.93778 4375 ft 85 kts 84°
2026-05-06 18:30 53.05015 8.94781 4639 ft 89 kts 85°
2026-05-06 18:30 53.05036 8.95828 4895 ft 92 kts 85°
2026-05-06 18:30 53.05055 8.96913 5151 ft 95 kts 85°
2026-05-06 18:31 53.05201 8.97985 5411 ft 97 kts 57°
2026-05-06 18:31 53.05765 8.98602 5672 ft 102 kts 17°
2026-05-06 18:31 53.06485 8.98746 5950 ft 106 kts
2026-05-06 18:31 53.07232 8.98838 6231 ft 109 kts
2026-05-06 18:32 53.07990 8.98942 6492 ft 110 kts
2026-05-06 18:32 53.08756 8.99064 6740 ft 111 kts
2026-05-06 18:32 53.09553 8.99205 6855 ft 123 kts 10°
2026-05-06 18:32 53.10455 8.99387 6879 ft 137 kts 10°
2026-05-06 18:33 53.11441 8.99590 6886 ft 147 kts
2026-05-06 18:33 53.12491 8.99726 6886 ft 156 kts 359°
2026-05-06 18:33 53.13539 8.99222 6880 ft 162 kts 341°
2026-05-06 18:33 53.14610 8.98584 6879 ft 164 kts 345°
2026-05-06 18:34 53.15709 8.97996 6875 ft 166 kts 345°
2026-05-06 18:34 53.16813 8.97404 6870 ft 167 kts 345°
2026-05-06 18:34 53.17920 8.96802 6873 ft 168 kts 345°
2026-05-06 18:34 53.19032 8.96193 6880 ft 169 kts 345°
2026-05-06 18:35 53.20149 8.95574 6881 ft 169 kts 344°
2026-05-06 18:35 53.21267 8.94953 6876 ft 169 kts 344°
2026-05-06 18:35 53.22383 8.94330 6872 ft 169 kts 345°
2026-05-06 18:35 53.23500 8.93713 6877 ft 169 kts 345°
2026-05-06 18:36 53.24617 8.93092 6880 ft 169 kts 344°
2026-05-06 18:36 53.25734 8.92470 6882 ft 169 kts 344°
2026-05-06 18:36 53.26853 8.91849 6880 ft 169 kts 345°
2026-05-06 18:36 53.27972 8.91233 6883 ft 169 kts 346°
2026-05-06 18:37 53.29125 8.91011 6876 ft 167 kts
2026-05-06 18:37 53.30287 8.90886 6882 ft 168 kts 356°
2026-05-06 18:37 53.31455 8.90670 6881 ft 170 kts 356°
2026-05-06 18:37 53.32639 8.90457 6886 ft 171 kts 356°
2026-05-06 18:38 53.33833 8.90256 6887 ft 173 kts 357°
2026-05-06 18:38 53.35032 8.90067 6882 ft 173 kts 357°
2026-05-06 18:38 53.36232 8.89881 6881 ft 173 kts 357°
2026-05-06 18:38 53.37433 8.89699 6875 ft 173 kts 357°
2026-05-06 18:39 53.38628 8.89516 6874 ft 173 kts 357°
2026-05-06 18:39 53.39824 8.89338 6874 ft 172 kts 357°
2026-05-06 18:39 53.41003 8.89157 6876 ft 172 kts 357°
2026-05-06 18:40 53.43387 8.88798 6882 ft 172 kts 357°
2026-05-06 18:40 53.44587 8.88615 6888 ft 173 kts 357°
2026-05-06 18:40 53.45784 8.88435 6880 ft 173 kts 357°
2026-05-06 18:40 53.46984 8.88254 6881 ft 173 kts 357°
2026-05-06 18:41 53.48181 8.88072 6890 ft 173 kts 357°
2026-05-06 18:41 53.49377 8.87890 6883 ft 173 kts 357°
2026-05-06 18:41 53.50578 8.87710 6887 ft 173 kts 357°
2026-05-06 18:41 53.51778 8.87527 6888 ft 173 kts 357°
2026-05-06 18:42 53.52977 8.87344 6882 ft 173 kts 357°
2026-05-06 18:42 53.54177 8.87160 6884 ft 173 kts 357°
2026-05-06 18:42 53.55380 8.86979 6888 ft 174 kts 357°
2026-05-06 18:42 53.56583 8.86801 6885 ft 174 kts 358°
2026-05-06 18:43 53.57787 8.86641 6884 ft 174 kts 358°
2026-05-06 18:43 53.58993 8.86479 6887 ft 174 kts 358°
2026-05-06 18:43 53.60186 8.86313 6887 ft 174 kts 358°
2026-05-06 18:43 53.61394 8.86142 6877 ft 174 kts 358°
2026-05-06 18:44 53.62596 8.85965 6869 ft 173 kts 358°
2026-05-06 18:44 53.63793 8.85785 6871 ft 172 kts 358°
2026-05-06 18:44 53.64987 8.85604 6873 ft 172 kts 358°
2026-05-06 18:44 53.66180 8.85422 6877 ft 172 kts 358°
2026-05-06 18:45 53.67375 8.85240 6889 ft 173 kts 358°
2026-05-06 18:45 53.68582 8.85054 6921 ft 175 kts 358°
2026-05-06 18:45 53.69801 8.84867 6909 ft 176 kts 358°
2026-05-06 18:45 53.70607 8.84743 6897 ft 176 kts 358°
2026-05-06 18:46 53.72232 8.84484 6884 ft 174 kts 358°
2026-05-06 18:46 53.73438 8.84306 6887 ft 174 kts 358°
2026-05-06 18:46 53.74648 8.84129 6895 ft 175 kts 358°
2026-05-06 18:46 53.75861 8.83941 6894 ft 176 kts 358°
2026-05-06 18:47 53.77081 8.83751 6897 ft 176 kts 358°
2026-05-06 18:47 53.78303 8.83561 6896 ft 177 kts 358°
2026-05-06 18:47 53.79532 8.83375 6895 ft 177 kts 358°
2026-05-06 18:47 53.80740 8.83190 6895 ft 177 kts 358°
2026-05-06 18:48 53.81970 8.83006 6901 ft 178 kts 358°
2026-05-06 18:48 53.83201 8.82811 6892 ft 177 kts 358°
2026-05-06 18:48 53.84428 8.82621 6880 ft 177 kts 358°
2026-05-06 18:48 53.85653 8.82431 6882 ft 177 kts 358°
2026-05-06 18:49 53.86880 8.82242 6883 ft 177 kts 358°
2026-05-06 18:49 53.88105 8.82052 6885 ft 177 kts 358°
2026-05-06 18:49 53.89333 8.81863 6881 ft 177 kts 358°
2026-05-06 18:49 53.90556 8.81673 6873 ft 176 kts 358°
2026-05-06 18:50 53.91775 8.81484 6876 ft 176 kts 358°
2026-05-06 18:50 53.92994 8.81295 6885 ft 176 kts 358°
2026-05-06 18:50 53.94218 8.81106 6893 ft 177 kts 358°
2026-05-06 18:50 53.95446 8.80916 6885 ft 177 kts 358°
2026-05-06 18:51 53.96669 8.80726 6874 ft 176 kts 358°
2026-05-06 18:51 53.97887 8.80536 6878 ft 176 kts 358°
2026-05-06 18:51 53.99104 8.80347 6879 ft 175 kts 358°
2026-05-06 18:51 54.00317 8.80161 6874 ft 175 kts 358°
2026-05-06 18:52 54.01518 8.79974 6873 ft 171 kts 358°
2026-05-06 18:52 54.02685 8.79790 6886 ft 166 kts 358°
2026-05-06 18:52 54.03834 8.79608 6888 ft 167 kts 358°
2026-05-06 18:52 54.04997 8.79425 6887 ft 168 kts 358°
2026-05-06 18:53 54.06151 8.79245 6883 ft 169 kts 358°
2026-05-06 18:53 54.07317 8.79064 6881 ft 168 kts 358°
2026-05-06 18:53 54.08476 8.78886 6887 ft 168 kts 358°
2026-05-06 18:53 54.09639 8.78706 6887 ft 168 kts 358°
2026-05-06 18:54 54.10806 8.78525 6892 ft 168 kts 358°
2026-05-06 18:54 54.11978 8.78342 6896 ft 169 kts 358°
2026-05-06 18:54 54.13151 8.78161 6892 ft 169 kts 358°
2026-05-06 18:54 54.14322 8.77978 6898 ft 169 kts 358°
2026-05-06 18:55 54.15493 8.77793 6901 ft 169 kts 358°
2026-05-06 18:55 54.16605 8.77620 6900 ft 169 kts 358°
2026-05-06 18:55 54.17777 8.77450 6899 ft 169 kts 358°
2026-05-06 18:55 54.18951 8.77276 6904 ft 169 kts 358°
2026-05-06 18:56 54.20124 8.77090 6904 ft 169 kts 357°
2026-05-06 18:56 54.20901 8.76945 6898 ft 170 kts 356°
2026-05-06 18:56 54.22459 8.76618 6918 ft 171 kts 355°
2026-05-06 18:56 54.23637 8.76345 6922 ft 172 kts 355°
2026-05-06 18:57 54.24824 8.76063 6932 ft 173 kts 355°
2026-05-06 18:57 54.26018 8.75774 6935 ft 174 kts 355°
2026-05-06 18:57 54.26828 8.75581 6938 ft 174 kts 355°
2026-05-06 18:57 54.28433 8.75329 6934 ft 176 kts 359°
2026-05-06 18:58 54.29259 8.75235 6935 ft 176 kts 359°
2026-05-06 18:58 54.30468 8.75099 6961 ft 177 kts 358°
2026-05-06 18:58 54.31694 8.74954 6933 ft 176 kts 358°
2026-05-06 18:58 54.32916 8.74779 6979 ft 177 kts 358°
2026-05-06 18:59 54.34146 8.74628 6949 ft 175 kts 359°
2026-05-06 18:59 54.35350 8.74461 6925 ft 172 kts 359°
2026-05-06 18:59 54.36532 8.74284 6956 ft 171 kts 358°
2026-05-06 18:59 54.37723 8.74084 6950 ft 173 kts 357°
2026-05-06 19:00 54.38925 8.73902 6965 ft 174 kts 357°
2026-05-06 19:00 54.40129 8.73724 6960 ft 171 kts 358°
2026-05-06 19:00 54.41294 8.73548 6927 ft 165 kts 358°
2026-05-06 19:00 54.42417 8.73375 6921 ft 159 kts 358°
2026-05-06 19:01 54.43489 8.73210 6909 ft 150 kts 358°
2026-05-06 19:01 54.44509 8.73054 6915 ft 144 kts 358°
2026-05-06 19:01 54.45490 8.72898 6903 ft 139 kts 358°
2026-05-06 19:01 54.46427 8.72746 6915 ft 136 kts 358°
2026-05-06 19:02 54.47371 8.72595 6913 ft 133 kts 358°
2026-05-06 19:02 54.48305 8.72452 6705 ft 146 kts 359°
2026-05-06 19:02 54.49376 8.72303 6344 ft 161 kts 358°
2026-05-06 19:02 54.50529 8.72146 5954 ft 170 kts 359°
2026-05-06 19:03 54.51709 8.71985 5566 ft 168 kts 358°
2026-05-06 19:03 54.52871 8.71815 5187 ft 167 kts 358°
2026-05-06 19:03 54.54026 8.71637 4804 ft 166 kts 358°
2026-05-06 19:03 54.55161 8.71459 4405 ft 161 kts 358°
2026-05-06 19:04 54.56267 8.71285 4020 ft 158 kts 358°
2026-05-06 19:04 54.57358 8.71114 3629 ft 157 kts 358°
2026-05-06 19:04 54.58439 8.70943 3234 ft 155 kts 359°
2026-05-06 19:04 54.59495 8.70775 3027 ft 149 kts 358°
2026-05-06 19:05 54.60489 8.70612 3003 ft 142 kts 359°
2026-05-06 19:05 54.61445 8.70440 2983 ft 137 kts 353°
2026-05-06 19:05 54.62314 8.69726 2981 ft 143 kts 326°
2026-05-06 19:05 54.63116 8.68665 2980 ft 147 kts 329°
2026-05-06 19:06 54.63974 8.67654 2987 ft 151 kts 331°
2026-05-06 19:06 54.64846 8.66628 2985 ft 152 kts 330°
2026-05-06 19:06 54.65720 8.65580 2993 ft 153 kts 329°
2026-05-06 19:06 54.66597 8.64518 2995 ft 154 kts 329°
2026-05-06 19:07 54.67477 8.63448 2995 ft 155 kts 328°
2026-05-06 19:07 54.68361 8.62367 2994 ft 156 kts 329°
2026-05-06 19:07 54.69249 8.61282 2992 ft 156 kts 329°
2026-05-06 19:07 54.70137 8.60196 2997 ft 156 kts 329°
2026-05-06 19:08 54.71017 8.59122 2994 ft 154 kts 330°
2026-05-06 19:08 54.71889 8.58051 3007 ft 154 kts 329°
2026-05-06 19:08 54.72764 8.56942 3041 ft 157 kts 328°
2026-05-06 19:08 54.73654 8.55835 3039 ft 158 kts 329°
2026-05-06 19:09 54.74549 8.54728 3023 ft 158 kts 330°
2026-05-06 19:09 54.75419 8.53675 2993 ft 146 kts 329°
2026-05-06 19:09 54.76197 8.52692 2974 ft 132 kts 330°
2026-05-06 19:09 54.76925 8.51794 2965 ft 128 kts 330°
2026-05-06 19:10 54.77654 8.50921 2967 ft 128 kts 331°
2026-05-06 19:10 54.78393 8.50024 2972 ft 131 kts 331°
2026-05-06 19:10 54.79148 8.49096 2876 ft 141 kts 331°
2026-05-06 19:10 54.79990 8.48069 2671 ft 154 kts 329°
2026-05-06 19:11 54.80889 8.46950 2446 ft 163 kts 329°
2026-05-06 19:11 54.81827 8.45775 2201 ft 168 kts 329°
2026-05-06 19:11 54.82774 8.44610 1962 ft 165 kts 330°
2026-05-06 19:11 54.83687 8.43485 1739 ft 155 kts 330°
2026-05-06 19:12 54.84536 8.42432 1516 ft 146 kts 331°
2026-05-06 19:12 54.85344 8.41441 1319 ft 140 kts 331°
2026-05-06 19:12 54.86122 8.40483 1116 ft 134 kts 328°
2026-05-06 19:12 54.86870 8.39563 925 ft 129 kts 328°
2026-05-06 19:13 54.87563 8.38700 760 ft 111 kts 328°
2026-05-06 19:13 54.88094 8.38024 613 ft 76 kts 332°
2026-05-06 19:13 54.88509 8.37517 439 ft 81 kts 331°
2026-05-06 19:13 54.88962 8.36959 383 ft 79 kts 332°
2026-05-06 19:14 54.89412 8.36426 301 ft 78 kts 332°
2026-05-06 19:14 54.89839 8.35864 212 ft 76 kts 332°
2026-05-06 19:14 54.90268 8.35346 95 ft 71 kts 332°
2026-05-06 19:14 54.90635 8.34900 34 ft 53 kts 326°
2026-05-06 19:15 54.90863 8.34614 35 ft 30 kts 324°
2026-05-06 19:15 54.90991 8.34459 37 ft 19 kts 322°
2026-05-06 19:15 54.91119 8.34296 38 ft 36 kts 326°
2026-05-06 19:15 54.91302 8.34045 36 ft 21 kts 287°
2026-05-06 19:16 54.91251 8.33831 33 ft 21 kts 239°
2026-05-06 19:16 54.91169 8.33593 32 ft 25 kts 240°
2026-05-06 19:16 54.91077 8.33318 33 ft 27 kts 241°
2026-05-06 19:16 54.91015 8.33020 33 ft 25 kts 289°
2026-05-06 19:17 54.91106 8.32818 33 ft 19 kts 309°
2026-05-06 19:17 54.91184 8.32654 33 ft 17 kts 315°
2026-05-06 19:17 54.91254 8.32530 33 ft 10 kts 247°
2026-05-06 19:17 54.91242 8.32502 33 ft 0 kts 229°